Location: Bruderhein
(53.8035°N, 112.9265°W)
Time: 16:23:49
(UTC+00:00)

RS-15 - Pass Details

Date: 09 April 2023
Orbit: 1885 x 2159 km, 64.8° (Epoch: 01 June)

Event Time Altitude Azimuth Distance (km) Brightness Sun altitude
Rises 06:55:18 0° 319° (NW) 5,642 11.3 -28.2°
Reaches altitude 10° 06:58:56 10° 314° (NW) 4,610 10.6 -28.3°
Maximum altitude 07:10:02 48° 247° (WSW) 2,530 8.4 -28.5°
Enters shadow 07:13:24 39° 208° (SSW) 2,759 8.3 -28.5°
